Volver al catálogo

SL-8 DEB

ActivoLEO
NORAD 3038·DEBRIS·🇷🇺 Russia

Lanzado Mar 15, 1965 desde Baikonur Cosmodrome

Loading…

Próximos Pases (próximas 24 horas)

TLE

ActualizadoSource: Space-Track

Época: Sep 14, 2026, 07:15 UTC

1 03038U 65020EN  26257.30220155  .00001979  00000-0  45661-3 0  9998
2 03038  56.1689   7.8381 0377365 310.3718  46.4886 14.23370587238506

Sigue SL-8 DEB en tiempo real con AllMySat

Download on the App Store